Voltar ao catálogo

COSMOS 1035

AtivoMilitarLEO
NORAD 11044·PAYLOAD·🇷🇺 Russia

Lançado Oct 4, 1978 de Plesetsk Cosmodrome

Loading…

Próximas Passagens (próximas 24 horas)

TLE

AtualizadoSource: Space-Track

Época: Sep 14, 2026, 16:01 UTC

1 11044U 78091B   26257.66778080 -.00000002  00000-0  82872-4 0  9993
2 11044  74.0385 330.6890 0048424 126.5619  27.1513 12.55707606197858

Acompanhe COSMOS 1035 em tempo real com AllMySat

Download on the App Store